"Pseudo-MPEC" for X72043

Created 2021 Jan 27 15:07:10 UT using Find_Orb

Click here for an explanation of pseudo-MPECs

 
 Astrometry: 
     X72043   C2021 01 11Dd++3nAstrometryoj/%,cWl+0redacted;yNCen3:click)D^^ED29
     X72043   C2021 01 11LDk,OXTxHra(YJ_KUJJ]GjRZ*5XhereBs$ItH:ZQforr4Ot`7saDD29
     X72043   C2021 01 11q@ITg9`GwvZ@o^iC`]#7/explanationkf),#`%eVJ\vsjcfQ0cMD29

Station data:
(D29) Purple Mountain Observatory, XuYi Station  (N32.734366 E118.463900)
   China.  Observers H. B. Zhao, B. Li, G. Zhaori, R. Q. Hong, L. F. Hu.
   Measurers H. B. Zhao, B. Li. H. Lu, G. Zhaori. 1.04-m f/1.8 Schmidt + CCD.

Orbital elements:  X72043
   Perihelion 2021 Feb 28.025951 +/- 14.153 TT =  0:37:22 (JD 2459273.525951)
Epoch 2021 Jan 11.0 TT = JDT 2459225.5   Earth MOID: 0.0016   Ma: 0.0783
M 317.92125352 +/- 37.684895        (J2000 ecliptic)          AutoNEOCP
n   0.87616686 +/- 0.77089          Peri.  108.53192 +/- 27.432760
a   1.08162860 +/- 0.634431         Node    57.67564 +/- 27.555854
e   0.2119379 +/- 0.184474          Incl.    0.36958 +/- 78.679711
P   1.12/410.87d           H 21.8   G  0.15   U 12.6  SR
q 0.85239043 +/- 0.256706    Q 1.31086678 +/- 15.0289
From 3 observations 2021 Jan. 11 (40.7 min); mean residual 0".21
Residuals in arcseconds: 
210111 D29  .06-  .20-    210111 D29  .11+  .40+    210111 D29  .06-  .20-    

Ephemerides (geocentric):
Date (UTC) HH   RA              Dec         delta   r     elong  mag " sig PA
---- -- -- --  -------------   -----------  ------ ------ -----  --- ---- ---
2021 01 27 15  22 29 51.390   -06 23 20.52  .10763 .89241  29.3 24??  18d 173
2021 01 27 16  22 29 38.272   -06 24 35.19  .10763 .89231  29.2 24??  18d 173
2021 01 27 17  22 29 25.144   -06 25 49.92  .10764 .89221  29.1 24??  18d 173
2021 01 27 18  22 29 12.005   -06 27 04.70  .10764 .89211  29.0 24??  18d 173
2021 01 27 19  22 28 58.856   -06 28 19.53  .10764 .89201  28.9 24??  18d 173
2021 01 27 20  22 28 45.697   -06 29 34.40  .10765 .89192  28.8 24??  18d 173
2021 01 27 21  22 28 32.527   -06 30 49.33  .10765 .89182  28.7 24??  18d 173
2021 01 27 22  22 28 19.347   -06 32 04.31  .10766 .89172  28.6 24??  18d 173
2021 01 27 23  22 28 06.158   -06 33 19.34  .10767 .89162  28.5 24??  18d 173
2021 01 28 00  22 27 52.958   -06 34 34.41  .10767 .89152  28.4 24??  18d 173
2021 01 28 01  22 27 39.748   -06 35 49.53  .10768 .89142  28.3 24??  18d 173
2021 01 28 02  22 27 26.529   -06 37 04.70  .10768 .89132  28.2 24??  18d 173
2021 01 28 03  22 27 13.299   -06 38 19.91  .10769 .89122  28.1 24??  18d 173
2021 01 28 04  22 27 00.060   -06 39 35.17  .10770 .89112  28.0 24??  18d 173
2021 01 28 05  22 26 46.812   -06 40 50.48  .10770 .89102  27.9 24??  18d 173
2021 01 28 06  22 26 33.554   -06 42 05.83  .10771 .89093  27.8 24??  18d 173
2021 01 28 07  22 26 20.286   -06 43 21.22  .10772 .89083  27.7 25??  18d 173
2021 01 28 08  22 26 07.009   -06 44 36.66  .10772 .89073  27.6 25??  18d 173
2021 01 28 09  22 25 53.722   -06 45 52.15  .10773 .89063  27.5 25??  18d 173
2021 01 28 10  22 25 40.426   -06 47 07.67  .10774 .89053  27.4 25??  18d 173
2021 01 28 11  22 25 27.121   -06 48 23.24  .10775 .89044  27.3 25??  18d 173
2021 01 28 12  22 25 13.807   -06 49 38.85  .10776 .89034  27.2 25??  18d 173
2021 01 28 13  22 25 00.484   -06 50 54.50  .10776 .89024  27.1 25??  19d 174
2021 01 28 14  22 24 47.151   -06 52 10.19  .10777 .89014  27.0 25??  19d 174
2021 01 28 15  22 24 33.810   -06 53 25.92  .10778 .89005  26.9 25??  19d 174
2021 01 28 16  22 24 20.460   -06 54 41.69  .10779 .88995  26.8 25??  19d 174
2021 01 28 17  22 24 07.101   -06 55 57.50  .10780 .88985  26.7 25??  19d 174
2021 01 28 18  22 23 53.733   -06 57 13.35  .10781 .88975  26.6 25??  19d 174
2021 01 28 19  22 23 40.357   -06 58 29.24  .10782 .88966  26.5 25??  19d 174
2021 01 28 20  22 23 26.972   -06 59 45.16  .10783 .88956  26.4 25??  19d 174
2021 01 28 21  22 23 13.579   -07 01 01.13  .10784 .88946  26.3 25??  19d 174
2021 01 28 22  22 23 00.177   -07 02 17.12  .10785 .88937  26.2 25??  19d 174
2021 01 28 23  22 22 46.767   -07 03 33.16  .10786 .88927  26.1 25??  19d 174
2021 01 29 00  22 22 33.349   -07 04 49.23  .10787 .88917  26.0 25??  19d 174
2021 01 29 01  22 22 19.922   -07 06 05.33  .10788 .88908  25.9 25??  19d 174
2021 01 29 02  22 22 06.488   -07 07 21.47  .10789 .88898  25.8 25??  19d 174
2021 01 29 03  22 21 53.045   -07 08 37.64  .10790 .88888  25.7 25??  19d 174
2021 01 29 04  22 21 39.594   -07 09 53.85  .10792 .88879  25.6 25??  19d 174
2021 01 29 05  22 21 26.136   -07 11 10.08  .10793 .88869  25.5 25??  19d 174
2021 01 29 06  22 21 12.669   -07 12 26.35  .10794 .88860  25.4 25??  19d 174
2021 01 29 07  22 20 59.195   -07 13 42.65  .10795 .88850  25.3 25??  19d 174
2021 01 29 08  22 20 45.714   -07 14 58.99  .10796 .88840  25.2 25??  19d 174
2021 01 29 09  22 20 32.224   -07 16 15.35  .10798 .88831  25.1 25??  19d 174
2021 01 29 10  22 20 18.728   -07 17 31.74  .10799 .88821  25.0 25??  19d 174
2021 01 29 11  22 20 05.223   -07 18 48.16  .10800 .88812  24.9 25??  19d 174
2021 01 29 12  22 19 51.712   -07 20 04.61  .10802 .88802  24.8 25??  19d 174
2021 01 29 13  22 19 38.193   -07 21 21.09  .10803 .88793  24.7 25??  19d 174
2021 01 29 14  22 19 24.667   -07 22 37.59  .10804 .88783  24.6 25??  19d 174